Location: Limerick
(52.6650°N, 8.6230°W)
Time: 17:03:38
(UTC+00:00)

Amateur Radio Satellites - All Passes

Search period start: 20 November 2017 16:33
Search period end: 21 November 2017 16:33
Location: Limerick, 52.6650°N, 8.6230°W

Satellite Date Start Highest point End Downlink Frequencies (MHz)
Time Altitude Azimuth
DOVE 4 20 Nov 16:33:56 16:39:02 86° 73° (ENE) 16:44:21 437.250
HO-68 20 Nov 16:36:31 16:42:07 25° 47° (NE) 16:47:44 435.675
XW-2F 20 Nov 16:38:37 16:41:26 21° 62° (ENE) 16:44:16 145.980 - 146.000
MOZHAYETS 4 20 Nov 16:41:33 16:45:58 50° 292° (WNW) 16:50:23
CUBESAT XI-V 20 Nov 16:50:01 16:54:40 60° 101° (E) 16:59:19 437.345
CUTE-I 20 Nov 16:55:15 17:00:10 38° 62° (ENE) 17:05:08 437.470
KKS-1 20 Nov 17:04:22 17:07:55 22° 92° (E) 17:11:26 437.445
KAITUO 1B 20 Nov 17:07:43 17:10:59 31° 67° (ENE) 17:14:17 145.475/437.950
ITAMSAT 1 20 Nov 17:14:08 17:16:03 12° 277° (W) 17:17:58 435.822/435.867
RS-15 20 Nov 17:17:44 17:24:15 16° 92° (E) 17:30:43 29.354- 29.394
XW-2D 20 Nov 17:19:36 17:23:16 56° 71° (ENE) 17:26:57 145.860 - 145.880
AO-7 20 Nov 17:23:53 17:28:16 15° 279° (W) 17:32:40 .
STARS 20 Nov 17:31:46 17:34:50 18° 90° (E) 17:37:53 437.465
O/OREOS (USA 219) 20 Nov 17:32:12 17:33:02 10° 335° (NNW) 17:33:53 437.305
XW-2B 20 Nov 17:34:19 17:38:03 77° 74° (ENE) 17:41:49 145.730 - 145.750
CUTE 1.7 + AOD 2 20 Nov 17:42:34 17:46:11 29° 64° (ENE) 17:49:50 437.475
NO-84 20 Nov 17:46:11 17:50:08 83° 155° (SSE) 17:54:19 435.350 FM
BEESAT 20 Nov 17:48:23 17:52:01 22° 303° (WNW) 17:55:38 436.000
UWE-3 20 Nov 17:52:30 17:55:14 16° 57° (ENE) 17:57:57 435.000/436.395/437.385
NUDT-PHONESAT 20 Nov 17:53:38 17:57:18 89° 71° (ENE) 18:00:59 437.300
ITUPSAT 1 20 Nov 17:57:35 18:00:58 20° 305° (NW) 18:04:21 437.325
XW-2A 20 Nov 17:59:56 18:01:18 12° 58° (ENE) 18:02:40 145.665 - 145.685
XW-2C 20 Nov 17:59:58 18:03:39 55° 260° (W) 18:07:21 145.795 - 145.815
LilacSat-2 20 Nov 18:00:45 18:04:26 51° 260° (W) 18:08:08 437.200
XW-2F 20 Nov 18:11:44 18:15:18 44° 261° (W) 18:18:54 145.980 - 146.000
DOVE 4 20 Nov 18:14:02 18:17:25 18° 275° (W) 18:20:53 437.250
SEEDS 20 Nov 18:14:41 18:18:31 36° 66° (ENE) 18:22:23 437.485
HO-68 20 Nov 18:21:46 18:28:58 83° 69° (ENE) 18:36:14 435.675
AAUSAT CUBESAT 2 20 Nov 18:24:59 18:28:18 24° 62° (ENE) 18:31:38 437.432
YUBILEINY 20 Nov 18:26:18 18:34:27 44° 274° (W) 18:42:35 435.215
CUBESAT XI-V 20 Nov 18:28:00 18:31:42 24° 301° (WNW) 18:35:24 437.345
CUBEBUG 2 20 Nov 18:28:00 18:32:24 49° 69° (ENE) 18:36:41 437.445
CUTE-I 20 Nov 18:35:07 18:40:12 42° 262° (W) 18:45:20 437.470
AO-73 20 Nov 18:36:10 18:39:16 20° 60° (ENE) 18:42:19 145.935
KKS-1 20 Nov 18:40:24 18:44:47 53° 291° (WNW) 18:49:08 437.445
KAITUO 1B 20 Nov 18:41:48 18:44:59 27° 265° (W) 18:48:11 145.475/437.950
Oscar 11 20 Nov 18:53:30 18:56:43 21° 60° (ENE) 18:59:57 .
XW-2D 20 Nov 18:55:25 18:57:47 16° 270° (W) 19:00:09 145.860 - 145.880
STRAND 1 20 Nov 18:59:48 19:03:23 19° 88° (E) 19:06:57 437.568
STARS 20 Nov 19:07:14 19:11:37 65° 289° (WNW) 19:15:58 437.465
XW-2B 20 Nov 19:11:16 19:12:45 12° 273° (W) 19:14:14 145.730 - 145.750
FO-29 20 Nov 19:16:12 19:20:12 14° 76° (ENE) 19:24:08 435.910
CUTE 1.7 + AOD 2 20 Nov 19:18:00 19:21:55 38° 263° (W) 19:25:53 437.475
ZACube-1 20 Nov 19:19:22 19:23:31 50° 70° (ENE) 19:27:38 437.345
RS-15 20 Nov 19:22:01 19:33:50 57° 117° (ESE) 19:45:32 29.354- 29.394
NO-84 20 Nov 19:23:38 19:27:41 62° 358° (N) 19:31:55 435.350 FM
UWE-3 20 Nov 19:26:45 19:31:12 82° 255° (WSW) 19:35:33 435.000/436.395/437.385
XW-2A 20 Nov 19:30:13 19:33:31 71° 257° (WSW) 19:36:52 145.665 - 145.685
SEEDS 20 Nov 19:50:37 19:54:15 29° 266° (W) 19:57:57 437.485
AAUSAT CUBESAT 2 20 Nov 19:59:32 20:03:31 47° 261° (W) 20:07:34 437.432
CUBEBUG 2 20 Nov 20:05:29 20:09:13 25° 267° (W) 20:12:55 437.445
AO-73 20 Nov 20:10:54 20:15:09 61° 258° (WSW) 20:19:20 145.935
HO-68 20 Nov 20:11:44 20:17:32 26° 270° (W) 20:23:22 435.675
KKS-1 20 Nov 20:19:34 20:20:23 10° 312° (NW) 20:21:13 437.445
Max Valier Satellite 20 Nov 20:21:15 20:24:05 22° 63° (ENE) 20:26:56 145.860
EO-88 20 Nov 20:22:07 20:24:31 17° 60° (ENE) 20:26:55 145.990 - 145.960
Oscar 11 20 Nov 20:28:16 20:32:30 59° 259° (W) 20:36:47 .
STRAND 1 20 Nov 20:38:02 20:43:11 78° 289° (WNW) 20:48:17 437.568
DELFI C3 20 Nov 20:38:06 20:41:53 44° 69° (ENE) 20:45:42 145.870
STARS 20 Nov 20:45:26 20:47:08 12° 309° (NW) 20:48:49 437.465
O/OREOS (USA 219) 20 Nov 20:54:53 20:56:39 12° 28° (NNE) 20:58:25 437.305
ZACube-1 20 Nov 20:56:42 21:00:04 22° 268° (W) 21:03:24 437.345
FO-29 20 Nov 20:59:11 21:06:58 57° 98° (E) 21:14:26 435.910
NO-84 20 Nov 21:01:05 21:05:18 87° 24° (NNE) 21:09:36 435.350 FM
UWE-3 20 Nov 21:06:47 21:08:20 12° 275° (W) 21:09:54 435.000/436.395/437.385
RS-15 20 Nov 21:33:59 21:46:19 68° 324° (NW) 21:58:25 29.354- 29.394
ESTCUBE 1 20 Nov 21:34:21 21:37:20 18° 56° (NE) 21:40:21 437.505/2401.250
nSIGHT-1 20 Nov 21:53:45 21:56:00 18° 145° (SE) 21:58:16 .
EO-88 20 Nov 21:54:15 21:57:48 55° 259° (W) 22:01:23 145.990 - 145.960
Max Valier Satellite 20 Nov 21:54:15 21:57:43 40° 262° (W) 22:01:12 145.860
PRISM 20 Nov 22:06:10 22:08:45 16° 89° (E) 22:11:19 437.425
DELFI C3 20 Nov 22:13:43 22:16:50 22° 268° (W) 22:20:00 145.870
STRAND 1 20 Nov 22:18:25 22:21:37 17° 309° (NW) 22:24:47 437.568
SO-50 20 Nov 22:19:17 22:23:06 28° 119° (ESE) 22:26:58 436.795
LO-87 20 Nov 22:21:06 22:24:33 44° 70° (ENE) 22:28:01 145.935 - 145.965
UNISAT 6 20 Nov 22:27:30 22:31:48 62° 102° (ESE) 22:36:01 437.425
TIGRISAT 20 Nov 22:32:04 22:36:22 63° 102° (ESE) 22:40:34 435.000
O/OREOS (USA 219) 20 Nov 22:33:02 22:37:22 40° 52° (NE) 22:41:40 437.305
ISS 20 Nov 22:34:35 22:37:25 27° 152° (SSE) 22:40:16 437.550
NO-84 20 Nov 22:38:38 22:42:26 32° 219° (SW) 22:46:15 435.350 FM
FO-29 20 Nov 22:44:27 22:51:48 45° 300° (WNW) 22:58:59 435.910
AIST 2D 20 Nov 22:51:05 22:53:01 14° 89° (E) 22:54:56 435.315
SPROUT 20 Nov 23:00:19 23:03:57 27° 63° (ENE) 23:07:35 437.525
ESTCUBE 1 20 Nov 23:09:07 23:13:36 80° 254° (WSW) 23:18:08 437.505/2401.250
nSIGHT-1 20 Nov 23:28:38 23:31:47 54° 164° (SSE) 23:34:56 .
VELOX 1 20 Nov 23:33:01 23:37:07 38° 65° (ENE) 23:41:16 145.980
PRISM 20 Nov 23:40:19 23:44:30 70° 287° (WNW) 23:48:38 437.425
RS-15 20 Nov 23:49:25 00:01:11 47° 356° (N) 00:12:32 29.354- 29.394
DUCHIFAT 1 20 Nov 23:53:59 23:57:05 20° 91° (E) 00:00:09 145.980
LO-87 20 Nov 23:55:36 23:58:11 18° 268° (W) 00:00:46 145.935 - 145.965
SO-50 20 Nov 23:58:53 00:03:19 58° 320° (NW) 00:07:49 436.795
EO-79 21 Nov 00:00:05 00:03:44 28° 94° (E) 00:07:22 145.935-145.965
NANOSAT C BR1 21 Nov 00:03:49 00:07:26 27° 94° (E) 00:11:01 145.865
UNISAT 6 21 Nov 00:04:59 00:08:08 20° 301° (WNW) 00:11:14 437.425
TIGRISAT 21 Nov 00:09:34 00:12:40 20° 302° (WNW) 00:15:43 435.000
ISS 21 Nov 00:10:21 00:13:36 67° 171° (S) 00:16:52 437.550
O/OREOS (USA 219) 21 Nov 00:12:37 00:16:44 33° 252° (WSW) 00:20:47 437.305
POLYITAN 1 21 Nov 00:15:03 00:18:59 38° 97° (E) 00:22:54 437.675
PCSat 21 Nov 00:15:18 00:19:25 23° 109° (ESE) 00:23:33 145.827
DX 1 21 Nov 00:20:54 00:24:45 31° 63° (ENE) 00:28:38 434.975-435.025
50 SAT 21 Nov 00:21:06 00:23:48 25° 66° (ENE) 00:26:33 437.505
AIST 2D 21 Nov 00:23:03 00:26:32 57° 288° (WNW) 00:30:00 435.315
FO-29 21 Nov 00:30:41 00:35:00 16° 322° (NW) 00:39:18 435.910
SPROUT 21 Nov 00:35:37 00:39:41 42° 262° (W) 00:43:47 437.525
QB50P2 21 Nov 00:38:10 00:42:24 70° 103° (ESE) 00:46:35 145.880/145.840
BUGSAT 1 21 Nov 00:49:15 00:52:12 19° 91° (E) 00:55:06 437.445
ESTCUBE 1 21 Nov 00:49:34 00:51:11 12° 275° (W) 00:52:48 437.505/2401.250
UKube-1 21 Nov 01:03:56 01:08:06 49° 68° (ENE) 01:12:18 .
nSIGHT-1 21 Nov 01:04:42 01:07:55 74° 185° (S) 01:11:06 .
VELOX 1 21 Nov 01:09:40 01:13:38 31° 265° (W) 01:17:38 145.980
PRISM 21 Nov 01:17:27 01:19:00 12° 308° (NW) 01:20:34 437.425
DUCHIFAT 1 21 Nov 01:28:59 01:33:03 54° 291° (WNW) 01:37:07 145.980
EO-79 21 Nov 01:35:41 01:39:36 38° 294° (WNW) 01:43:29 145.935-145.965
NANOSAT C BR1 21 Nov 01:39:20 01:43:15 39° 293° (WNW) 01:47:08 145.865
SO-50 21 Nov 01:41:04 01:44:38 22° 343° (NNW) 01:48:16 436.795
BEESAT 21 Nov 01:45:20 01:49:15 26° 59° (ENE) 01:53:11 436.000
Oscar 19 21 Nov 01:45:56 01:50:47 39° 97° (E) 01:55:35 437.125/150
ISS 21 Nov 01:46:44 01:50:00 65° 190° (S) 01:53:15 437.550
POLYITAN 1 21 Nov 01:51:02 01:54:40 29° 297° (WNW) 01:58:16 437.675
50 SAT 21 Nov 01:53:04 01:55:52 26° 264° (W) 01:58:41 437.505
ITUPSAT 1 21 Nov 01:54:22 01:58:29 30° 61° (ENE) 02:02:38 437.325
DX 1 21 Nov 01:56:46 02:00:52 38° 262° (W) 02:04:59 434.975-435.025
PCSat 21 Nov 01:56:48 02:02:15 80° 310° (NW) 02:07:43 145.827
RS-15 21 Nov 02:04:18 02:16:21 60° 29° (NNE) 02:27:45 29.354- 29.394
Gurwin Techsat 1B 21 Nov 02:06:23 02:11:28 43° 98° (E) 02:16:31 435.225
M-CUBED/EXP-1 PRIME 21 Nov 02:08:26 02:09:19 10° 91° (E) 02:10:12 437.505
MOZHAYETS 4 21 Nov 02:11:58 02:16:20 46° 68° (ENE) 02:20:42
QB50P2 21 Nov 02:14:53 02:17:44 18° 302° (WNW) 02:20:34 145.880/145.840
CUBESAT XI-V 21 Nov 02:23:20 02:26:36 19° 57° (ENE) 02:29:53 437.345
BUGSAT 1 21 Nov 02:23:54 02:27:52 53° 290° (WNW) 02:31:47 437.445
UKube-1 21 Nov 02:40:53 02:44:22 23° 267° (W) 02:47:53 .
nSIGHT-1 21 Nov 02:40:57 02:43:57 36° 203° (SSW) 02:46:55 .
AO-7 21 Nov 03:20:10 03:27:35 34° 94° (E) 03:34:58 .
BEESAT 21 Nov 03:22:03 03:26:45 55° 259° (W) 03:31:28 436.000
SO-50 21 Nov 03:23:16 03:26:34 19° 7° (N) 03:29:55 436.795
ISS 21 Nov 03:23:23 03:26:09 25° 210° (SSW) 03:28:55 437.550
Oscar 19 21 Nov 03:25:21 03:30:07 39° 297° (WNW) 03:34:52 437.125/150
BEESAT 3 21 Nov 03:26:16 03:29:54 34° 122° (ESE) 03:33:33 437.485
ITUPSAT 1 21 Nov 03:31:32 03:36:08 47° 260° (W) 03:40:47 437.325
ITAMSAT 1 21 Nov 03:37:25 03:41:52 28° 93° (E) 03:46:17 435.822/435.867
M-CUBED/EXP-1 PRIME 21 Nov 03:39:57 03:44:25 66° 108° (ESE) 03:49:01 437.505
PCSat 21 Nov 03:41:51 03:46:27 27° 333° (NNW) 03:51:03 145.827
Gurwin Techsat 1B 21 Nov 03:46:30 03:51:23 37° 298° (WNW) 03:56:14 435.225
YUBILEINY 21 Nov 03:47:57 03:51:12 13° 65° (ENE) 03:54:27 435.215
MOZHAYETS 4 21 Nov 03:49:49 03:53:41 27° 267° (W) 03:57:34
CUBESAT XI-V 21 Nov 03:58:53 04:03:28 74° 256° (WSW) 04:08:08 437.345
KKS-1 21 Nov 04:07:33 04:11:47 43° 66° (ENE) 04:16:03 437.445
RS-15 21 Nov 04:17:30 04:29:20 68° 238° (WSW) 04:40:30 29.354- 29.394
DOVE 4 21 Nov 04:27:45 04:31:23 19° 86° (E) 04:34:55 437.250
STARS 21 Nov 04:33:22 04:37:23 34° 64° (ENE) 04:41:23 437.465
BEESAT 2 21 Nov 04:36:12 04:40:06 49° 126° (SE) 04:44:03 435.950
STRAND 1 21 Nov 04:46:23 04:47:50 11° 45° (NE) 04:49:17 437.568
BEESAT 3 21 Nov 05:03:32 05:07:23 43° 322° (NW) 05:11:15 437.485
SO-50 21 Nov 05:03:58 05:08:14 36° 31° (NNE) 05:12:33 436.795
AO-7 21 Nov 05:12:43 05:21:03 74° 296° (WNW) 05:29:22 .
M-CUBED/EXP-1 PRIME 21 Nov 05:14:57 05:18:27 23° 306° (NW) 05:22:04 437.505
AO-85 21 Nov 05:15:52 05:19:40 48° 125° (SE) 05:23:40 145.980
ITAMSAT 1 21 Nov 05:16:32 05:21:39 55° 293° (WNW) 05:26:42 435.822/435.867
PCSat 21 Nov 05:28:00 05:31:39 18° 359° (N) 05:35:18 145.827
XW-2C 21 Nov 05:28:22 05:29:24 11° 86° (E) 05:30:25 145.795 - 145.815
LilacSat-2 21 Nov 05:29:21 05:30:55 12° 87° (E) 05:32:29 437.200
FO-29 21 Nov 05:36:02 05:40:12 16° 38° (NE) 05:44:31 435.910
YUBILEINY 21 Nov 05:37:24 05:45:45 52° 89° (E) 05:54:10 435.215
XW-2F 21 Nov 05:38:46 05:40:36 13° 88° (E) 05:42:27 145.980 - 146.000
CUBESAT XI-V 21 Nov 05:40:17 05:41:42 11° 276° (W) 05:43:07 437.345
KKS-1 21 Nov 05:44:36 05:48:30 28° 266° (W) 05:52:24 437.445
HO-68 21 Nov 05:46:17 05:48:01 11° 78° (ENE) 05:49:45 435.675
DOVE 4 21 Nov 06:04:25 06:09:44 81° 285° (WNW) 06:14:48 437.250
KAITUO 1B 21 Nov 06:06:36 06:09:25 20° 92° (E) 06:12:14 145.475/437.950
STARS 21 Nov 06:09:37 06:13:41 35° 263° (W) 06:17:48 437.465
BEESAT 2 21 Nov 06:14:16 06:18:00 34° 327° (NNW) 06:21:45 435.950
XW-2D 21 Nov 06:20:04 06:23:36 36° 97° (E) 06:27:09 145.860 - 145.880
STRAND 1 21 Nov 06:20:57 06:25:53 48° 66° (ENE) 06:30:50 437.568
RS-15 21 Nov 06:31:29 06:39:20 21° 263° (W) 06:46:59 29.354- 29.394
XW-2B 21 Nov 06:34:47 06:38:30 49° 99° (E) 06:42:12 145.730 - 145.750
BEESAT 3 21 Nov 06:43:08 06:45:51 17° 345° (NNW) 06:48:34 437.485
SO-50 21 Nov 06:44:24 06:48:57 59° 232° (SW) 06:53:34 436.795
CUTE-I 21 Nov 06:45:33 06:50:48 50° 100° (E) 06:55:59 437.470
NUDT-PHONESAT 21 Nov 06:51:21 06:55:00 53° 100° (E) 06:58:39 437.300
AO-85 21 Nov 06:56:31 07:00:13 34° 328° (NNW) 07:04:09 145.980
CUTE 1.7 + AOD 2 21 Nov 06:56:39 07:00:12 25° 93° (E) 07:03:45 437.475
ITAMSAT 1 21 Nov 06:57:48 07:00:05 13° 314° (NW) 07:02:20 435.822/435.867
XW-2C 21 Nov 07:00:20 07:04:09 87° 286° (WNW) 07:07:58 145.795 - 145.815
LilacSat-2 21 Nov 07:01:52 07:05:43 79° 286° (WNW) 07:09:33 437.200
AO-7 21 Nov 07:06:09 07:12:39 26° 320° (NW) 07:19:10 .
XW-2F 21 Nov 07:11:23 07:15:11 72° 286° (WNW) 07:18:58 145.980 - 146.000
UWE-3 21 Nov 07:11:46 07:13:42 13° 86° (E) 07:15:38 435.000/436.395/437.385
PCSat 21 Nov 07:12:26 07:16:55 25° 25° (NNE) 07:21:23 145.827
FO-29 21 Nov 07:16:53 07:23:27 48° 61° (ENE) 07:30:42 435.910
SEEDS 21 Nov 07:27:39 07:31:28 31° 95° (E) 07:35:16 437.485
HO-68 21 Nov 07:30:33 07:37:35 51° 100° (E) 07:44:32 435.675
YUBILEINY 21 Nov 07:34:17 07:42:42 49° 293° (WNW) 07:51:15 435.215
AAUSAT CUBESAT 2 21 Nov 07:35:55 07:38:57 19° 90° (E) 07:41:57 437.432
KAITUO 1B 21 Nov 07:40:01 07:43:37 44° 290° (WNW) 07:47:13 145.475/437.950
DOVE 4 21 Nov 07:43:11 07:46:36 18° 307° (NW) 07:49:56 437.250
CUBEBUG 2 21 Nov 07:49:10 07:53:15 46° 99° (E) 07:57:14 437.445
AO-73 21 Nov 07:53:28 07:56:08 16° 89° (E) 07:58:49 145.935
BEESAT 2 21 Nov 07:54:14 07:56:49 16° 350° (N) 07:59:24 435.950
XW-2D 21 Nov 07:54:30 07:57:39 25° 296° (WNW) 08:00:50 145.860 - 145.880
UNISAT 6 21 Nov 07:56:45 07:59:51 19° 58° (ENE) 08:02:55 437.425
STRAND 1 21 Nov 08:00:42 08:05:15 31° 266° (W) 08:09:51 437.568
TIGRISAT 21 Nov 08:01:10 08:04:17 19° 58° (ENE) 08:07:22 435.000
XW-2B 21 Nov 08:09:35 08:12:23 20° 298° (WNW) 08:15:11 145.730 - 145.750
Oscar 11 21 Nov 08:10:05 08:13:03 18° 89° (E) 08:16:00 .
XW-2A 21 Nov 08:18:18 08:21:35 49° 100° (E) 08:24:52 145.665 - 145.685
BEESAT 3 21 Nov 08:22:24 08:24:49 15° 9° (N) 08:27:13 437.485
CUTE-I 21 Nov 08:25:55 08:30:40 33° 300° (WNW) 08:35:25 437.470
NUDT-PHONESAT 21 Nov 08:25:58 08:28:32 18° 299° (WNW) 08:31:05 437.300
SO-50 21 Nov 08:27:27 08:28:31 11° 251° (WSW) 08:29:35 436.795
CUTE 1.7 + AOD 2 21 Nov 08:32:09 08:36:13 44° 292° (WNW) 08:40:17 437.475
XW-2C 21 Nov 08:36:10 08:37:44 12° 304° (NW) 08:39:17 145.795 - 145.815
ZACube-1 21 Nov 08:37:31 08:41:32 46° 99° (E) 08:45:32 437.345
LilacSat-2 21 Nov 08:38:04 08:39:20 11° 305° (NW) 08:40:37 437.200
AO-85 21 Nov 08:38:57 08:41:48 17° 352° (N) 08:44:47 145.980
UWE-3 21 Nov 08:46:35 08:50:47 82° 286° (WNW) 08:54:55 435.000/436.395/437.385
XW-2F 21 Nov 08:47:59 08:48:35 10° 306° (NW) 08:49:11 145.980 - 146.000
PCSat 21 Nov 08:55:47 09:01:14 71° 48° (NE) 09:06:39 145.827
AO-7 21 Nov 08:59:28 09:02:39 13° 346° (NNW) 09:05:51 .
PRISM 21 Nov 09:00:25 09:03:50 25° 62° (ENE) 09:07:17 437.425
FO-29 21 Nov 09:01:57 09:08:31 48° 265° (W) 09:15:50 435.910
SEEDS 21 Nov 09:03:18 09:07:10 35° 294° (WNW) 09:11:02 437.485
AAUSAT CUBESAT 2 21 Nov 09:10:37 09:14:45 57° 289° (WNW) 09:18:50 437.432
HO-68 21 Nov 09:18:31 09:25:16 45° 302° (WNW) 09:32:00 435.675
Max Valier Satellite 21 Nov 09:19:10 09:20:51 13° 88° (E) 09:22:33 145.860
CUBEBUG 2 21 Nov 09:26:15 09:29:39 24° 299° (WNW) 09:33:00 437.445
AO-73 21 Nov 09:28:43 09:32:49 64° 288° (WNW) 09:36:55 145.935
AIST 2D 21 Nov 09:31:10 09:33:02 14° 59° (ENE) 09:34:54 435.315
UNISAT 6 21 Nov 09:31:33 09:36:06 76° 257° (WSW) 09:40:35 437.425
BEESAT 2 21 Nov 09:33:16 09:35:59 17° 14° (NNE) 09:38:41 435.950
TIGRISAT 21 Nov 09:35:58 09:40:31 74° 257° (WSW) 09:44:59 435.000
YUBILEINY 21 Nov 09:37:22 09:42:19 16° 321° (NW) 09:47:17 435.215
POLYITAN 1 21 Nov 09:40:57 09:41:57 11° 51° (NE) 09:42:58 437.675
DELFI C3 21 Nov 09:43:27 09:47:06 32° 96° (E) 09:50:42 145.870
Oscar 11 21 Nov 09:45:19 09:49:37 65° 289° (WNW) 09:53:54 .
XW-2A 21 Nov 09:51:50 09:53:58 16° 299° (WNW) 09:56:07 145.665 - 145.685
BEESAT 3 21 Nov 09:59:54 10:03:30 31° 32° (NNE) 10:07:02 437.485
QB50P2 21 Nov 10:02:09 10:04:56 17° 57° (ENE) 10:07:44 145.880/145.840
ZACube-1 21 Nov 10:14:17 10:17:36 24° 298° (WNW) 10:20:55 437.345
AO-85 21 Nov 10:20:23 10:23:42 20° 17° (NNE) 10:27:10 145.980
UWE-3 21 Nov 10:24:38 10:26:34 13° 306° (NW) 10:28:30 435.000/436.395/437.385
PRISM 21 Nov 10:34:58 10:38:55 44° 261° (W) 10:42:56 437.425
PCSat 21 Nov 10:39:46 10:44:12 26° 249° (WSW) 10:48:38 145.827
AO-7 21 Nov 10:48:46 10:51:59 13° 14° (NNE) 10:55:12 .
EO-88 21 Nov 10:50:10 10:53:50 83° 106° (ESE) 10:57:30 145.990 - 145.960
DUCHIFAT 1 21 Nov 10:50:50 10:54:34 32° 65° (ENE) 10:58:19 145.980
Max Valier Satellite 21 Nov 10:51:28 10:55:08 69° 287° (WNW) 10:58:47 145.860
FO-29 21 Nov 10:54:20 10:55:41 11° 288° (WNW) 10:57:05 435.910
ESTCUBE 1 21 Nov 10:56:37 10:59:15 15° 87° (E) 11:01:52 437.505/2401.250
EO-79 21 Nov 10:57:37 11:01:39 45° 68° (ENE) 11:05:43 145.935-145.965
NANOSAT C BR1 21 Nov 11:00:59 11:05:00 43° 68° (ENE) 11:09:01 145.865
AIST 2D 21 Nov 11:02:20 11:05:46 64° 258° (WSW) 11:09:15 435.315
AO-73 21 Nov 11:07:24 11:08:16 11° 308° (NW) 11:09:07 145.935
HO-68 21 Nov 11:07:33 11:11:20 15° 325° (NW) 11:15:06 435.675
BEESAT 2 21 Nov 11:10:51 11:14:43 40° 36° (NE) 11:18:32 435.950
UNISAT 6 21 Nov 11:12:14 11:13:34 11° 275° (W) 11:14:54 437.425
POLYITAN 1 21 Nov 11:12:44 11:16:54 61° 71° (ENE) 11:21:06 437.675
LO-87 21 Nov 11:15:25 11:18:23 24° 94° (E) 11:21:18 145.935 - 145.965
TIGRISAT 21 Nov 11:16:45 11:17:58 11° 276° (W) 11:19:12 435.000
DELFI C3 21 Nov 11:18:15 11:21:49 31° 294° (WNW) 11:25:20 145.870
Oscar 11 21 Nov 11:23:31 11:24:57 11° 308° (NW) 11:26:22 .
Oscar 19 21 Nov 11:31:19 11:35:01 21° 54° (NE) 11:38:44 437.125/150
QB50P2 21 Nov 11:35:59 11:40:14 75° 256° (WSW) 11:44:31 145.880/145.840
BEESAT 3 21 Nov 11:37:22 11:41:16 55° 233° (SW) 11:45:05 437.485
BUGSAT 1 21 Nov 11:43:56 11:47:38 30° 64° (ENE) 11:51:17 437.445
Gurwin Techsat 1B 21 Nov 11:55:07 11:59:19 24° 56° (NE) 12:03:31 435.225
AO-85 21 Nov 12:00:37 12:05:00 51° 39° (NE) 12:09:44 145.980
SPROUT 21 Nov 12:15:19 12:18:40 22° 92° (E) 12:21:58 437.525
EO-88 21 Nov 12:25:18 12:26:56 13° 303° (WNW) 12:28:35 145.990 - 145.960
DUCHIFAT 1 21 Nov 12:26:21 12:30:12 34° 263° (W) 12:34:05 145.980
ESTCUBE 1 21 Nov 12:32:05 12:36:39 82° 289° (WNW) 12:41:12 437.505/2401.250
EO-79 21 Nov 12:34:07 12:37:36 24° 267° (W) 12:41:07 145.935-145.965
AO-7 21 Nov 12:35:31 12:42:00 27° 40° (NE) 12:48:30 .
NANOSAT C BR1 21 Nov 12:37:22 12:40:53 25° 267° (W) 12:44:24 145.865
LO-87 21 Nov 12:48:37 12:51:50 32° 293° (WNW) 12:55:02 145.935 - 145.965
BEESAT 2 21 Nov 12:48:41 12:52:26 38° 237° (WSW) 12:56:10 435.950
POLYITAN 1 21 Nov 12:50:09 12:53:05 18° 270° (W) 12:56:02 437.675
VELOX 1 21 Nov 12:53:00 12:57:04 32° 96° (E) 13:01:04 145.980
O/OREOS (USA 219) 21 Nov 12:53:32 12:55:51 14° 98° (E) 12:58:10 437.305
M-CUBED/EXP-1 PRIME 21 Nov 12:57:37 13:00:49 28° 56° (NE) 13:04:15 437.505
Oscar 19 21 Nov 13:08:39 13:13:46 83° 254° (WSW) 13:18:57 437.125/150
QB50P2 21 Nov 13:16:29 13:16:48 10° 276° (W) 13:17:07 145.880/145.840
BUGSAT 1 21 Nov 13:19:03 13:22:55 35° 263° (W) 13:26:46 437.445
ITAMSAT 1 21 Nov 13:24:17 13:27:30 17° 50° (NE) 13:30:45 435.822/435.867
Gurwin Techsat 1B 21 Nov 13:33:29 13:38:48 72° 256° (WSW) 13:44:09 435.225
DX 1 21 Nov 13:38:52 13:42:28 24° 93° (E) 13:46:02 434.975-435.025
AO-85 21 Nov 13:41:09 13:45:22 36° 238° (WSW) 13:49:51 145.980
YUBILEINY 21 Nov 13:44:05 13:47:25 12° 32° (NNE) 13:50:45 435.215
SPROUT 21 Nov 13:50:41 13:54:50 50° 291° (WNW) 13:58:56 437.525
ESTCUBE 1 21 Nov 14:10:13 14:12:47 15° 306° (NW) 14:15:20 437.505/2401.250
UKube-1 21 Nov 14:20:41 14:24:45 37° 98° (E) 14:28:47 .
AO-7 21 Nov 14:25:22 14:33:37 75° 64° (ENE) 14:41:55 .
VELOX 1 21 Nov 14:29:26 14:33:33 37° 295° (WNW) 14:37:38 145.980
O/OREOS (USA 219) 21 Nov 14:29:56 14:34:33 86° 115° (ESE) 14:39:11 437.305
M-CUBED/EXP-1 PRIME 21 Nov 14:31:42 14:35:06 36° 257° (WSW) 14:38:47 437.505
50 SAT 21 Nov 14:35:54 14:39:09 77° 286° (WNW) 14:42:23 437.505
Oscar 19 21 Nov 14:51:10 14:53:55 14° 274° (W) 14:56:41 437.125/150
ITAMSAT 1 21 Nov 15:00:57 15:06:11 75° 70° (ENE) 15:11:26 435.822/435.867
DX 1 21 Nov 15:14:38 15:18:53 48° 292° (WNW) 15:23:06 434.975-435.025
BEESAT 21 Nov 15:16:19 15:20:12 24° 92° (E) 15:24:04 436.000
Gurwin Techsat 1B 21 Nov 15:17:20 15:19:44 13° 276° (W) 15:22:08 435.225
ITUPSAT 1 21 Nov 15:25:54 15:30:02 28° 94° (E) 15:34:08 437.325
NO-84 21 Nov 15:34:42 15:37:30 20° 134° (SE) 15:40:26 435.350 FM
MOZHAYETS 4 21 Nov 15:37:39 15:42:05 47° 99° (E) 15:46:29
DOVE 4 21 Nov 15:37:57 15:42:34 34° 63° (ENE) 15:47:18 437.250
YUBILEINY 21 Nov 15:39:37 15:47:42 37° 61° (ENE) 15:55:44 435.215
CUBESAT XI-V 21 Nov 15:49:56 15:53:16 19° 89° (E) 15:56:36 437.345
UKube-1 21 Nov 15:56:52 16:00:42 31° 297° (WNW) 16:04:31 .
O/OREOS (USA 219) 21 Nov 16:11:06 16:14:36 21° 320° (NW) 16:18:05 437.305
XW-2C 21 Nov 16:14:53 16:16:51 14° 58° (ENE) 16:18:50 145.795 - 145.815
LilacSat-2 21 Nov 16:16:42 16:18:56 15° 58° (ENE) 16:21:10 437.200
HO-68 21 Nov 16:20:23 16:25:29 22° 43° (NE) 16:30:36 435.675
XW-2F 21 Nov 16:25:05 16:27:23 16° 59° (ENE) 16:29:43 145.980 - 146.000
